Location: Unspecified
(52.4292°N, 19.3359°E)
Time: 02:18:41
(UTC+02:00)

Vanguard 1 Rocket - Pass Details

Date: 24 May 2024
Orbit: 649 x 4221 km, 34.3° (Epoch: 13 June)

Event Time Altitude Azimuth Distance (km) Brightness Sun altitude
Rises 13:59:22 0° 265° (W) 6,597 12.1 54.9°
Reaches altitude 10° 14:05:50 10° 252° (WSW) 4,842 11.7 54.4°
Maximum altitude 14:13:46 20° 213° (SSW) 3,126 11.2 53.6°
Drops below altitude 10° 14:19:11 10° 169° (S) 3,145 10.6 53.1°
Sets 14:22:14 0° 151° (SSE) 3,733 10.7 52.8°
